Theta_e
338 340 341 340 339 342 342 339 340 342 344 341 341 340 338 338 340 340 336 333 330 329 328 327 322 318 312 310 308 307 305 303 300 302 303 306 306 304 304 305 308 307 308
319 333 341 342 341 341 341 340 340 342 345 344 343 342 342 341 340 339 334 332 331 329 327 324 320 316 310 308 308 306 305 303 302 300 302 301 302 302 302 302 306 310 309
318 322 334 338 342 341 340 341 341 342 343 344 344 343 343 343 340 338 336 333 331 330 326 323 319 314 310 308 306 307 306 305 303 302 300 300 300 300 300 301 303 304 310
315 319 320 323 331 340 342 341 341 339 339 341 343 343 342 342 339 336 334 329 327 325 324 321 316 313 311 308 308 307 306 305 304 302 299 298 299 298 298 299 301 302 303
312 314 317 320 325 333 336 337 335 335 333 336 339 339 336 335 334 331 330 326 322 319 320 317 314 314 314 311 308 306 303 302 302 300 297 295 295 295 296 296 297 298 301
309 312 316 319 323 332 329 331 331 331 332 335 336 336 334 334 315 318 325 324 321 317 314 312 313 314 311 309 309 307 304 301 299 298 295 294 293 293 294 295 296 296 296
307 312 315 319 322 323 330 331 330 330 331 331 332 334 333 327 313 313 319 327 325 320 314 311 310 309 308 305 306 305 304 304 303 299 296 295 294 296 296 295 295 295 296
305 309 315 319 320 327 330 328 329 329 330 331 330 331 331 328 311 312 317 327 322 317 313 310 306 303 302 301 300 300 300 301 300 300 298 297 298 297 297 298 297 297 298
304 307 311 318 322 329 328 329 328 329 329 329 327 326 328 327 306 305 317 314 310 305 304 304 303 301 298 298 300 299 299 300 302 301 300 299 297 297 298 297 296 296 295
305 308 311 315 320 326 328 331 330 328 327 327 325 326 321 320 302 302 311 310 304 301 301 301 303 302 297 298 300 299 298 297 299 298 298 297 297 297 299 297 296 294 293
308 310 313 314 318 323 327 330 329 327 325 325 323 319 311 309 306 302 303 310 304 301 300 300 300 298 296 297 299 300 298 298 300 298 298 297 296 296 298 296 296 296 294
313 315 319 320 319 322 326 327 326 326 323 317 314 311 310 311 305 301 300 303 302 301 301 299 298 296 295 295 299 295 295 296 296 297 298 295 292 291 292 294 296 296 298
314 317 317 315 315 316 321 319 317 320 316 313 310 306 304 304 301 299 299 299 300 301 300 299 294 294 294 296 294 294 295 296 294 292 290 289 290 291 291 291 294 297 298
305 309 312 311 310 310 311 312 313 313 312 309 307 304 303 299 299 300 298 296 296 297 297 296 296 295 295 296 295 295 294 293 292 290 289 289 290 290 289 289 291 292 292
303 304 304 303 301 298 296 301 308 307 309 309 309 305 302 299 299 298 297 297 297 295 295 295 294 294 292 292 292 292 292 292 291 290 289 289 289 289 288 290 290 290 290
300 302 303 304 304 302 300 297 293 294 296 296 299 305 303 298 294 294 293 293 293 293 296 294 292 291 291 292 292 290 290 292 290 290 289 289 288 288 288 289 289 288 287
298 299 301 301 302 301 300 299 295 294 293 292 295 294 295 293 293 293 292 292 291 294 294 293 291 291 291 291 290 290 289 289 290 290 289 289 289 288 287 287 287 287 287
296 295 298 299 300 301 300 299 299 297 294 293 292 292 291 291 291 291 292 294 294 293 293 292 291 291 291 291 290 289 289 289 289 289 290 289 289 287 286 285 285 285 285
294 294 294 294 294 294 295 296 296 296 293 292 292 291 291 290 290 291 292 295 293 293 293 293 292 291 291 290 290 290 289 288 288 288 288 288 288 286 285 284 284 283 284
294 292 292 293 293 292 292 293 293 294 293 292 291 291 293 294 294 293 294 294 293 293 293 292 291 290 291 291 290 289 287 287 287 287 287 287 287 286 284 283 283 283 283
295 294 289 292 292 291 291 291 291 291 290 290 290 291 288 293 292 292 292 293 293 292 292 292 292 291 292 291 290 289 288 287 285 286 286 286 286 285 284 284 284 284 284
296 294 293 292 292 292 292 293 293 292 292 291 291 290 288 293 292 291 290 290 291 291 292 291 290 290 290 290 290 289 288 287 286 285 285 285 285 285 285 284 283 284 284
295 294 293 292 292 291 293 293 292 292 292 292 292 292 292 292 292 291 290 290 291 289 289 289 288 286 286 287 287 288 286 285 285 286 285 285 285 284 284 284 284 283 283
297 295 294 293 293 292 292 292 292 291 292 292 292 291 291 291 290 289 289 289 288 286 285 285 285 285 285 285 285 284 284 283 285 285 286 285 284 284 284 283 283 283 282
297 295 294 293 292 292 292 292 293 292 292 292 291 289 289 289 289 288 287 286 285 284 284 284 284 284 284 284 283 283 282 283 284 284 284 285 285 285 283 283 283 283 282
296 297 295 293 292 293 293 293 291 291 292 292 291 289 288 288 288 287 286 285 284 283 283 283 284 284 284 283 283 283 283 284 284 284 284 285 284 283 283 283 283 282 281
Wind_Speed
6 10 13 15 15 12 11 9 11 12 14 14 15 15 14 13 12 12 10 12 10 10 7 7 6 7 4 4 5 3 2 3 4 1 0 1 2 1 3 3 4 4 4
9 5 9 9 11 13 12 9 8 12 13 15 14 14 15 14 14 13 15 14 15 12 11 9 9 6 4 5 4 4 3 2 4 4 0 2 1 2 2 3 4 4 4
11 11 4 7 10 12 13 12 13 13 13 11 12 14 14 13 13 14 13 14 12 11 13 10 7 9 8 4 3 4 3 3 3 4 2 2 2 2 3 3 3 4 4
12 8 7 6 4 9 11 11 10 7 9 10 12 11 8 8 8 9 13 14 8 8 7 8 7 7 9 8 5 5 3 5 3 4 3 2 2 2 2 2 3 4 5
10 9 7 6 5 6 9 11 9 9 6 7 9 8 9 9 13 18 9 17 10 9 9 8 5 7 15 7 5 5 6 4 3 4 3 1 1 1 1 1 1 0 2
11 8 10 7 5 4 4 10 10 9 10 10 10 12 14 10 20 20 24 11 9 8 10 9 9 9 12 10 11 8 7 7 4 4 3 2 2 2 1 1 1 1 1
11 10 10 9 6 4 6 9 12 12 12 11 11 13 17 19 29 28 31 23 23 17 12 14 10 8 10 8 11 10 6 7 5 6 6 5 3 5 3 0 1 2 1
9 10 12 9 9 1 7 10 10 12 14 15 13 12 16 17 28 31 25 11 12 12 15 11 15 13 9 12 11 7 6 6 5 4 5 5 4 4 2 2 4 2 0
10 13 12 9 9 7 11 10 9 11 11 13 14 14 13 12 8 14 13 12 13 13 14 12 12 13 12 13 13 10 6 5 6 9 8 8 7 5 2 3 1 2 1
13 14 10 9 9 9 13 12 9 9 10 9 11 12 13 13 12 14 16 11 14 11 10 12 16 15 13 10 12 11 9 5 6 5 4 4 3 0 1 2 3 3 3
9 9 10 10 9 8 6 11 12 11 9 9 10 8 11 12 15 19 19 13 12 11 9 9 8 16 16 10 12 7 6 7 5 5 3 2 0 2 1 3 2 3 3
8 8 9 7 4 3 8 8 11 11 12 9 11 8 8 11 16 13 16 19 17 14 11 8 9 14 13 13 8 11 12 8 4 4 4 2 1 1 2 2 2 4 1
5 6 4 3 3 4 6 8 8 10 10 12 11 11 10 8 9 14 24 22 17 13 10 12 15 14 15 11 13 12 9 5 5 4 4 2 2 2 2 1 4 5 5
6 7 4 6 7 8 5 3 7 9 9 10 12 12 11 13 11 9 12 13 20 14 15 11 10 11 10 9 7 5 4 5 5 5 3 2 0 2 1 1 2 2 4
7 6 6 7 7 9 9 3 5 3 8 13 12 14 15 11 11 11 15 13 12 14 13 8 8 7 6 5 4 5 5 5 5 4 3 3 3 3 3 3 3 3 5
6 6 5 3 5 5 7 9 23 17 16 16 12 16 7 18 21 17 21 24 27 19 9 10 7 7 7 6 7 5 4 6 4 5 4 3 4 4 4 4 3 4 4
7 6 6 6 5 6 5 7 10 15 27 20 21 20 25 23 23 24 26 25 18 14 10 8 7 7 6 6 6 5 4 3 4 5 5 4 4 4 6 2 3 2 3
8 14 7 6 6 6 7 6 7 9 10 9 16 23 24 24 25 24 24 19 11 8 9 9 8 7 7 7 6 5 5 4 4 5 5 4 4 5 4 3 3 2 2
9 8 8 8 8 9 8 8 8 10 10 11 12 16 17 23 20 18 14 10 10 9 8 7 7 6 6 7 6 6 5 4 4 5 4 4 5 5 4 4 3 3 3
9 15 11 8 8 9 9 8 9 10 10 10 10 10 10 14 10 9 6 8 8 7 8 8 5 6 6 7 7 6 5 5 5 4 5 5 4 5 5 4 3 4 3
7 8 9 9 8 8 9 10 10 10 10 10 8 8 10 10 10 7 7 7 8 8 8 8 6 6 7 7 7 5 6 5 4 4 5 5 5 5 3 4 4 4 4
7 8 8 9 8 9 10 10 11 12 11 11 11 11 13 10 10 10 9 8 8 9 7 7 6 5 4 6 6 5 6 5 4 5 5 5 5 5 4 4 4 3 4
8 9 9 9 8 9 11 10 10 11 11 11 11 10 10 10 10 11 10 8 8 7 6 6 7 5 5 5 4 4 7 5 4 5 6 5 5 5 4 5 4 4 4
6 8 9 8 8 9 9 10 10 12 11 11 11 10 10 9 8 8 7 6 6 6 6 5 5 7 7 5 5 5 4 4 3 5 7 6 5 5 5 5 4 5 5
6 6 7 7 8 8 9 9 8 9 9 9 8 8 8 7 7 7 8 7 7 6 7 6 5 7 9 8 7 7 5 5 5 6 5 7 7 7 6 5 4 5 4
4 6 7 7 7 8 8 8 7 6 6 5 6 5 6 7 7 7 7 7 7 7 7 6 6 8 8 6 6 6 5 5 6 7 6 6 7 5 5 7 8 5 5
Wind_Direction
274 225 206 196 201 201 202 191 181 173 181 183 190 194 193 197 191 183 164 153 147 141 136 146 145 129 131 121 106 99 110 104 115 39 24 342 46 34 359 353 5 10 353
347 278 224 213 210 205 198 195 178 181 187 189 191 196 200 189 190 184 160 160 153 149 140 149 139 107 96 94 106 116 138 104 120 131 180 39 75 351 342 8 11 13 10
350 2 287 217 198 197 205 207 199 189 189 188 187 198 204 198 191 192 169 157 161 169 128 126 140 148 129 129 113 139 105 87 78 118 127 58 38 16 353 8 15 10 3
344 354 13 17 269 204 200 203 207 208 180 180 189 195 190 182 162 165 127 97 116 116 131 128 128 162 145 135 136 139 132 103 99 105 79 72 72 351 23 80 50 30 23
332 342 329 319 318 221 176 179 172 172 173 179 167 167 134 145 142 134 94 116 123 132 122 116 137 183 112 132 137 156 128 115 137 111 87 67 41 31 238 315 113 58 54
318 323 311 312 340 294 214 164 152 142 144 159 165 154 146 142 145 127 111 105 135 147 153 133 126 136 107 135 115 129 141 147 136 127 127 166 210 192 240 279 167 90 60
305 322 300 300 290 303 175 176 152 153 146 149 155 162 158 147 144 145 161 163 176 173 154 146 141 107 136 133 108 109 108 97 115 148 150 186 157 198 162 119 329 92 119
310 306 291 283 280 196 163 180 163 158 161 157 154 158 161 170 166 166 180 163 149 149 142 153 133 138 144 132 116 103 90 83 109 117 130 149 146 153 167 168 175 123 50
277 271 264 267 275 172 173 173 185 173 169 175 164 160 163 171 179 151 144 111 118 120 119 127 133 127 135 132 121 116 107 86 79 92 101 105 110 118 113 107 98 111 14
244 244 258 261 261 235 162 169 177 185 178 161 169 170 167 166 146 130 132 130 122 117 117 125 133 128 136 143 128 130 139 137 130 104 83 72 90 355 358 58 174 136 121
249 248 243 252 247 238 194 155 168 170 161 178 153 136 126 140 150 143 140 141 138 135 141 124 119 138 146 144 117 145 140 136 145 133 128 104 133 303 305 240 172 142 109
257 262 262 241 229 181 151 176 159 169 155 135 125 114 119 135 145 147 135 132 141 135 131 126 136 150 150 140 132 131 130 122 132 131 130 127 133 278 280 269 165 214 123
315 243 135 101 61 52 128 149 131 155 156 140 134 127 124 119 99 128 119 117 121 120 132 129 128 127 127 124 135 134 132 135 128 118 142 144 193 232 305 350 57 73 84
32 32 71 87 74 62 65 110 138 144 151 143 136 137 143 130 128 130 118 108 104 103 111 113 114 104 102 116 112 130 135 131 137 133 137 126 283 61 57 349 87 63 81
55 56 62 70 78 74 58 352 93 71 154 153 152 148 147 143 140 154 137 139 130 119 126 109 111 102 101 103 100 112 109 113 121 119 118 115 76 73 45 360 41 41 77
42 55 58 77 90 88 90 72 46 53 62 60 110 140 106 123 120 128 120 114 117 125 118 125 116 114 126 131 125 102 88 112 104 107 110 111 111 91 73 26 45 74 93
31 34 54 56 68 82 108 100 98 62 59 61 85 91 114 124 124 117 113 109 109 109 121 114 113 122 123 112 112 118 110 91 103 105 113 120 108 90 82 64 56 72 72
35 37 44 42 48 71 67 90 102 99 98 76 56 97 92 97 106 112 113 109 100 84 108 119 120 122 118 117 115 114 95 99 100 109 104 122 106 95 94 74 43 93 108
32 32 40 51 52 57 62 61 77 89 97 101 95 75 90 100 91 77 78 108 120 114 111 108 119 117 119 116 114 96 100 102 107 113 112 110 104 108 87 79 90 61 98
42 39 45 47 49 57 59 69 70 80 84 86 92 103 115 105 86 75 60 97 104 105 110 108 106 102 100 106 99 109 110 100 102 105 97 97 98 93 104 108 87 101 68
37 42 39 55 56 64 68 68 69 73 78 83 84 80 79 102 103 89 99 97 109 104 101 107 102 102 110 110 107 110 108 103 100 105 103 108 120 102 95 91 87 88 102
42 54 49 53 59 64 70 73 80 80 79 84 83 79 84 87 89 91 85 81 81 80 81 96 88 88 105 117 118 122 114 108 104 104 109 113 108 113 109 89 78 88 91
59 60 62 62 61 65 72 74 72 76 80 81 82 84 81 81 84 78 76 66 63 69 73 84 101 96 78 81 77 107 122 129 128 125 113 114 115 111 107 102 106 92 89
62 72 73 71 66 68 74 79 79 74 79 84 85 84 81 80 88 95 98 103 89 72 70 85 89 108 100 87 86 85 91 108 103 114 125 120 116 111 102 94 90 93 94
65 73 75 82 87 88 81 77 73 77 82 81 94 98 97 105 101 96 82 83 85 88 79 78 85 98 97 101 97 100 88 88 102 108 107 107 116 114 104 100 99 80 89
83 91 94 95 91 104 107 92 88 88 94 101 97 77 88 88 93 106 104 99 96 89 86 78 83 88 92 88 96 103 111 118 109 100 106 103 105 99 94 98 97 90 99